Weather in Setúbal

Portugal     38°31′31″N   8°54′10″W
temp.,
°C
wind,
m/s
gust,
m/s
humid.,
%
clouds,
%
prec.,
mm/h
press.,
hPa
HPBL,
m
18 september, sat
sat1801:00+18nnw6108015 0.0 1017717
04:00+17n511760 0.0 1017704
07:00+17nnw510770 0.0 1017636
10:00+20n79580 0.0 1019998
13:00+24n79405 0.0 10181123
16:00+24n89395 0.0 10171113
19:00+20n810535 0.0 1018877
22:00+18n713730 0.0 1019614
19 september, sun
sun1901:00+17n712732 0.0 1019568
04:00+17n612765 0.0 1019558
07:00+16n36810 0.0 1019190
10:00+20n68610 0.0 1020603
13:00+24n78410 0.0 1020841
16:00+26n78360 0.0 1019889
19:00+21n812535 0.0 1020579
22:00+18n613720 0.0 1021483
20 september, mon
mon2001:00+18n714830 0.0 1021573
04:00+17n713830 0.0 1020562
07:00+17nnw612830 0.0 1020492
10:00+20n69670 0.0 1020610
13:00+25n56420 0.0 1019888
16:00+27nnw56340 0.0 10171116
19:00+23nnw710520 0.0 1017456
22:00+20n413600 0.0 1018392
21 september, tue
tue2101:00+19nne513600 0.0 1018421
04:00+18nne513530 0.0 1017392
07:00+17nne514500 0.0 1018507
10:00+21ne711420 0.0 1018718
13:00+25ne67310 0.0 10171199
16:00+27nne56260 0.0 10151627
19:00+24nne59300 0.0 1015354
22:00+20n37420 0.0 1016129
22 september, wed
wed2201:00+18n394979 0.0 1016188
04:00+17n3852100 0.0 1014194
07:00+15nne5977100 0.0 1015254
10:00+19ne5769100 0.0 1015417
13:00+24e3549100 0.0 10151073
16:00+27nnw0442100 0.8 10121380
19:00+23ssw115585 2.3 101216
22:00+18nne48903 0.9 1014215